BEIDOU-3 G2 (PRN 144)

Last updated on Wed Nov 05 2025 00:03:27 GMT+0000 (Coordinated Universal Time)

1 45344U 20017A 25308.55173373 -.00000128 00000+0 00000+0 0 9992 2 45344 2.9275 43.0227 0003341 257.6422 22.0698 1.00271756 21003
UTC large
Height (km)
Speed (km/s)
/
Latitude / Longitude
Inclination (degrees)
Orbital Period (minutes)
Azimuth
Elevation
Range (km)
Doppler Factor

Next 0 passes for location: London (51.5072 / 0.1276)

Sorry there are no passes over London.